{"data":{"norad_id":64068,"intl_designator":"2025-107E","name":"STARLINK-11700 [DTC]","alt_names":[],"object_type":"PAYLOAD","status":"ACTIVE","operator":null,"country":"US","launch_date":"2025-05-21","launch_site_code":"AFETR","launch_vehicle":null,"mission":null,"orbit_class":"UNKNOWN","rcs_meters":null,"size_class":null,"mass_kg":null,"dimensions":null,"purposes":["comms"],"wikipedia_slug":null,"has_3d_model":false,"image_url":null,"decayed_at":null,"tle_current":{"epoch":"2026-05-24T14:36:19.931328Z","epoch_age_seconds":108539,"freshness":"FRESH","line1":"1 64068U 25107E   26144.60856402  .00238875  00000+0  18023-2 0  9995","line2":"2 64068  43.0026   1.0226 0002486 270.8663  89.1920 15.70969003 59232","mean_motion":15.70969003,"eccentricity":0.0002486,"inclination_deg":43.0026,"raan_deg":1.0226,"arg_perigee_deg":270.8663,"mean_anomaly_deg":89.192,"bstar":0.0018023,"rev_number":5923,"period_min":91.663170772313,"perigee_km":354.45223420858,"apogee_km":357.80050995717,"semimajor_km":6734.2633720829,"source":"CELESTRAK","updated_at":"2026-05-25T13:38:20.258078Z"}}}